Weather History for KEZS - July, 2013

Change the Weather History Date:

Friday, July 12, 2013

  Actual Average (KGRB) Record (KGRB)
Temperature  
Mean Temperature 70 °F 69 °F  
Max Temperature 83 °F 80 °F 102 °F (1936)
Min Temperature 58 °F 59 °F 47 °F (1976)
Degree Days  
Heating Degree Days 0 1  
Month to date heating degree days 12  
Since 1 June heating degree days 104  
Since 1 July heating degree days 12  
Cooling Degree Days 6 5  
Month to date cooling degree days 60  
Year to date cooling degree days 161  
Since 1 June cooling degree days 143  
Growing Degree Days 20 (Base 50)    
Moisture  
Dew Point 57 °F    
Average Humidity 63    
Maximum Humidity 91    
Minimum Humidity 36    
Precipitation  
Precipitation 0.00 in 0.11 in 2.05 in (1950)
Month to date precipitation 1.41  
Year to date precipitation 14.94  
Snow  
Snow 0.00 in 0.00 in 0.00 in ()
Month to date snowfall 0.0  
Since 1 June snowfall 0.0  
Since 1 July snowfall 0.0  
Snow Depth -    
Sea Level Pressure  
Sea Level Pressure 30.12 in    
Wind  
Wind Speed 3 mph (South)    
Max Wind Speed 9 mph    
Max Gust Speed -    
Visibility 10 miles    
Events      
T = Trace of Precipitation, MM = Missing Value Source: NWS Daily Summary

Daily Weather History Graph

Daily Weather History Graph

Search for Another Location

Airport or City:

Trip Planner

Search our weather history database for the weather conditions in past years. The results will help you decide how hot, cold, wet, or windy it might be!

Date:

Astronomy

Jul. 12, 2013 Rise Set
Actual Time 5:20 AM CDT 8:39 PM CDT
Civil Twilight 4:44 AM CDT 9:15 PM CDT
Nautical Twilight 3:57 AM CDT 10:01 PM CDT
Astronomical Twilight 2:58 AM CDT 11:00 PM CDT
Moon 9:50 AM CDT (7/12) 10:35 PM CDT (7/12)
Length of Visible Light 16h 30m
Length of Day
15h 18m
Waxing Crescent, 17% of the Moon is Illuminated
Jul 12
Waxing Crescent
Jul 15
First Quarter
Jul 22
Full
Jul 29
Last Quarter
Aug 6
New

Hourly Weather History & Observations

Time (CDT) Temp. Heat Index Dew Point Humidity Pressure Visibility Wind Dir Wind Speed Gust Speed Precip Events Conditions
12:15 AM 64.6 °F - 56.5 °F 75% 30.10 in 10.0 mi SSW 3.5 mph - N/A   Clear
12:35 AM 63.9 °F - 56.3 °F 76% 30.10 in 10.0 mi Calm Calm - N/A   Clear
12:55 AM 63.3 °F - 56.3 °F 78% 30.11 in 10.0 mi Calm Calm - N/A   Clear
1:15 AM 62.6 °F - 56.5 °F 80% 30.11 in 10.0 mi Calm Calm - N/A   Clear
1:35 AM 62.6 °F - 56.5 °F 80% 30.11 in 10.0 mi Calm Calm - N/A   Clear
1:55 AM 61.5 °F - 57.0 °F 85% 30.11 in 10.0 mi Calm Calm - N/A   Clear
2:15 AM 61.3 °F - 56.5 °F 84% 30.11 in 10.0 mi Calm Calm - N/A   Clear
2:35 AM 61.0 °F - 56.3 °F 85% 30.10 in 10.0 mi Calm Calm - N/A   Clear
2:55 AM 61.2 °F - 56.5 °F 85% 30.11 in 10.0 mi Calm Calm - N/A   Clear
3:15 AM 60.8 °F - 56.5 °F 86% 30.11 in 10.0 mi Calm Calm - N/A   Clear
3:35 AM 60.6 °F - 57.0 °F 88% 30.11 in 10.0 mi Calm Calm - N/A   Clear
3:55 AM 59.9 °F - 56.5 °F 88% 30.11 in 10.0 mi Calm Calm - N/A   Clear
4:15 AM 59.9 °F - 56.7 °F 89% 30.11 in 10.0 mi Calm Calm - N/A   Clear
4:35 AM 59.4 °F - 56.3 °F 90% 30.12 in 10.0 mi Calm Calm - N/A   Clear
4:55 AM 58.6 °F - 55.9 °F 91% 30.13 in 10.0 mi Calm Calm - N/A   Clear
5:15 AM 58.8 °F - 55.9 °F 90% 30.12 in 10.0 mi Calm Calm - N/A   Clear
5:35 AM 59.4 °F - 56.1 °F 89% 30.13 in 10.0 mi Calm Calm - N/A   Clear
5:55 AM 59.4 °F - 56.3 °F 90% 30.15 in 10.0 mi Calm Calm - N/A   Clear
6:15 AM 60.4 °F - 56.3 °F 86% 30.15 in 10.0 mi Calm Calm - N/A   Clear
6:35 AM 61.9 °F - 56.8 °F 84% 30.15 in 10.0 mi Calm Calm - N/A   Clear
6:55 AM 62.4 °F - 57.6 °F 84% 30.15 in 10.0 mi Calm Calm - N/A   Clear
7:15 AM 64.0 °F - 57.6 °F 79% 30.16 in 10.0 mi Calm Calm - N/A   Clear
7:35 AM 65.8 °F - 56.7 °F 72% 30.15 in 10.0 mi SSW 3.5 mph - N/A   Clear
7:55 AM 67.1 °F - 56.5 °F 69% 30.16 in 10.0 mi SSW 3.5 mph - N/A   Clear
8:15 AM 68.7 °F - 56.5 °F 65% 30.16 in 10.0 mi SSW 4.6 mph - N/A   Clear
8:35 AM 70.3 °F - 56.8 °F 62% 30.16 in 10.0 mi SSW 5.8 mph - N/A   Clear
8:55 AM 71.6 °F - 55.6 °F 57% 30.16 in 10.0 mi South 5.8 mph - N/A   Clear
9:15 AM 71.8 °F - 55.6 °F 57% 30.16 in 10.0 mi SSW 5.8 mph - N/A   Clear
9:35 AM 73.2 °F - 56.3 °F 55% 30.17 in 10.0 mi SSW 5.8 mph - N/A   Clear
9:55 AM 74.1 °F - 57.2 °F 55% 30.16 in 10.0 mi SSW 5.8 mph - N/A   Clear
10:35 AM 76.3 °F - 58.8 °F 55% 30.16 in 10.0 mi SW 5.8 mph - N/A   Clear
10:55 AM 76.8 °F - 58.5 °F 53% 30.15 in 10.0 mi South 6.9 mph - N/A   Clear
11:15 AM 78.3 °F - 59.5 °F 52% 30.15 in 10.0 mi South 6.9 mph - N/A   Clear
11:35 AM 79.2 °F - 59.5 °F 51% 30.15 in 10.0 mi SSW 4.6 mph - N/A   Clear
11:55 AM 79.5 °F - 58.8 °F 49% 30.14 in 10.0 mi South 8.1 mph - N/A   Clear
12:15 PM 80.1 °F 80.7 °F 58.6 °F 48% 30.14 in 10.0 mi SSW 5.8 mph - N/A   Clear
12:35 PM 80.4 °F 80.8 °F 57.7 °F 46% 30.14 in 10.0 mi South 5.8 mph - N/A   Clear
12:55 PM 81.0 °F 81.0 °F 57.4 °F 44% 30.14 in 10.0 mi SW 5.8 mph - N/A   Clear
1:15 PM 81.9 °F 81.7 °F 57.6 °F 43% 30.14 in 10.0 mi SSE 6.9 mph - N/A   Clear
1:35 PM 81.7 °F 81.5 °F 56.8 °F 43% 30.13 in 10.0 mi SSW 8.1 mph - N/A   Clear
1:55 PM 81.9 °F 81.8 °F 57.7 °F 44% 30.13 in 10.0 mi SW 8.1 mph - N/A   Clear
2:15 PM 81.7 °F 81.5 °F 57.0 °F 43% 30.13 in 10.0 mi SSW 6.9 mph - N/A   Clear
2:35 PM 82.4 °F 82.0 °F 57.4 °F 42% 30.12 in 10.0 mi South 9.2 mph - N/A   Scattered Clouds
2:55 PM 82.6 °F 82.2 °F 57.0 °F 42% 30.12 in 10.0 mi SSW 6.9 mph - N/A   Scattered Clouds
3:15 PM 83.3 °F 82.6 °F 56.5 °F 40% 30.12 in 10.0 mi SW 6.9 mph - N/A   Clear
3:35 PM 82.8 °F 82.0 °F 55.8 °F 39% 30.11 in 10.0 mi South 5.8 mph - N/A   Clear
3:55 PM 82.6 °F 81.8 °F 55.0 °F 39% 30.11 in 10.0 mi South 8.1 mph - N/A   Clear
4:15 PM 82.4 °F - 52.9 °F 36% 30.11 in 10.0 mi SSW 4.6 mph - N/A   Clear
4:35 PM 82.2 °F 81.4 °F 54.1 °F 38% 30.10 in 10.0 mi SSW 6.9 mph - N/A   Clear
4:55 PM 81.3 °F - 52.0 °F 36% 30.10 in 10.0 mi South 6.9 mph - N/A   Clear
5:35 PM 80.8 °F 80.3 °F 53.1 °F 38% 30.10 in 10.0 mi South 5.8 mph - N/A   Clear
5:55 PM 80.6 °F 80.4 °F 54.0 °F 40% 30.09 in 10.0 mi SSE 4.6 mph - N/A   Clear
6:15 PM 79.0 °F - 55.4 °F 44% 30.09 in 10.0 mi Calm Calm - N/A   Clear
6:35 PM 79.2 °F - 57.0 °F 46% 30.09 in 10.0 mi Calm Calm - N/A   Clear
6:55 PM 80.2 °F 80.6 °F 57.9 °F 46% 30.09 in 10.0 mi SSE 4.6 mph - N/A   Clear
7:15 PM 79.7 °F - 58.3 °F 48% 30.09 in 10.0 mi South 3.5 mph - N/A   Clear
7:35 PM 78.4 °F - 58.8 °F 51% 30.09 in 7.0 mi SSE 3.5 mph - N/A   Clear
7:55 PM 77.5 °F - 59.2 °F 53% 30.09 in 10.0 mi Calm Calm - N/A   Clear
8:15 PM 75.9 °F - 59.7 °F 57% 30.09 in 10.0 mi Calm Calm - N/A   Clear
8:35 PM 72.9 °F - 61.2 °F 67% 30.09 in 10.0 mi Calm Calm - N/A   Clear
8:55 PM 72.3 °F - 60.8 °F 67% 30.09 in 10.0 mi Calm Calm - N/A   Clear
9:15 PM 69.1 °F - 60.8 °F 75% 30.09 in 10.0 mi Calm Calm - N/A   Clear
9:35 PM 70.3 °F - 59.4 °F 68% 30.09 in 10.0 mi SSE 5.8 mph - N/A   Clear
9:55 PM 71.1 °F - 57.9 °F 63% 30.09 in 10.0 mi SSE 6.9 mph - N/A   Clear
10:35 PM 68.9 °F - 56.8 °F 65% 30.09 in 10.0 mi South 5.8 mph - N/A   Clear
10:55 PM 68.9 °F - 56.8 °F 65% 30.09 in 10.0 mi South 5.8 mph - N/A   Clear
11:15 PM 67.5 °F - 57.4 °F 70% 30.08 in 10.0 mi SSE 4.6 mph - N/A   Clear
11:35 PM 67.5 °F - 57.4 °F 70% 30.08 in 10.0 mi South 4.6 mph - N/A   Clear
11:55 PM 67.1 °F - 57.6 °F 71% 30.08 in 10.0 mi Calm Calm - N/A   Clear